Location: Friaudour
(46.0460°N, 1.2873°E)
Time: 22:21:52
(UTC+00:00)

Landsat 5 - Visible Passes

Search period start: 29 October 2020 00:00
Search period end: 08 November 2020 00:00
Orbit: 528 x 655 km, 98.2° (Epoch: 28 October)

Date Brightness Start Highest point End Pass type
(mag) Time Alt. Az. Time Alt. Az. Time Alt. Az.
30 Oct 4.2 17:14:24 10° N 17:18:13 54° WNW 17:22:09 10° SSW visible
31 Oct 4.6 17:22:50 10° N 17:26:35 44° WNW 17:30:25 10° SW visible
01 Nov 5.0 17:31:18 10° N 17:34:55 36° WNW 17:38:38 10° SW visible
02 Nov 5.4 17:39:47 10° N 17:43:16 30° WNW 17:46:49 10° SW visible
03 Nov 5.7 17:48:18 10° N 17:51:35 25° WNW 17:54:56 10° WSW visible
04 Nov 5.9 17:56:51 10° NNW 17:59:54 21° WNW 18:03:01 10° WSW visible
05 Nov 6.2 18:05:27 10° NNW 18:08:12 18° WNW 18:11:01 10° WSW visible
06 Nov 6.3 18:14:07 10° NNW 18:16:30 15° WNW 18:18:56 10° W visible
07 Nov 6.4 18:22:54 10° NNW 18:24:48 13° WNW 18:26:42 10° W visible
